QIANFAN-107 (66049 NORAD) Tracking and Keplerian Element Data

This shows tracking and keplerian element data for the satellite.

Feedback or suggestion? Click here.




ElementValue
Catalog66049
NameQIANFAN-107
Epoch Orbit892
Epoch Day353.6064365
Epoch Year2025
RAAN61.4231
Inclination88.9956
Eccentricity0.0015541
Argument of Perigee27.747
Mean Anonmoly332.452
Mean Motion13.731858
Decay Rate4.9E-07
L11 66049U 25233S 25353.60643650 .00000049 00000+0 38601-4 0 9992
L22 66049 88.9956 61.4231 0015541 27.7470 332.4520 13.73185800 8926



Live tracking and technical data element details for QIANFAN-107 (NORAD 66049). QIANFAN-107 can be tracked NOW for your location showing map with azimuth and elevation plus other details from your city location.







IsCatalogInMostPopularTable: catalog: 66049, numindb: 8
Update: records affected: 1



GetName: 66049 QIANFAN-107

Hit Count: updated at: Sat, 11 Apr 2026 21:19:24 GMT